sat.trackr.live / text

‹ back to catalog

STARLINK-34493

NORAD 64472 · 2025-133A

PAYLOAD ACTIVE UNKNOWN

§ Identity

Operator
Country
US
Launch date
2025-06-23
Launch site
AFETR
Launch vehicle
Mass (kg)
RCS (m²)

Purposes: comms

External: N2YO · Heavens-Above · Gunter

§ Orbital elements

Epoch: 2026-05-25T05:28:42.317184Z

Period
94.10 min
Inclination
53.1569°
Eccentricity
0.0001148
Mean motion
15.30212061 rev/d
Perigee alt
474.4 km
Apogee alt
476.0 km
Semi-major
6,853.3 km
B*
6.0822e-4
RAAN
121.5098°
Arg perigee
74.2914°
Mean anomaly
285.8213°
Rev number
5,290

§ Raw data

STARLINK-344931 64472U 25133A   26145.22826756  .00017704  00000+0  60822-3 0  99922 64472  53.1569 121.5098 0001148  74.2914 285.8213 15.30212061 52907

JSON: /api/v1/satellites/64472 · /tle

For live sub-satellite position, see the globe view (requires WebGL).

§ Visibility from observer

Set your observer location to see the next 7 days of passes ≥ 10°. The values pass through the URL so the page stays shareable.

No JS? Fill the form by hand. The geolocation button needs JavaScript.